Weather History for KPRN - November, 2012

Change the Weather History Date:

Saturday, November 24, 2012

  Actual Average Record
Temperature  
Mean Temperature 44 °F -  
Max Temperature 55 °F 67 °F 82 °F (1986)
Min Temperature 32 °F 43 °F 17 °F (1970)
Degree Days  
Heating Degree Days 21    
Moisture  
Dew Point 29 °F    
Average Humidity 56    
Maximum Humidity 85    
Minimum Humidity 27    
Precipitation  
Precipitation 0.00 in - - ()
Sea Level Pressure  
Sea Level Pressure 30.19 in    
Wind  
Wind Speed 8 mph (NNW)    
Max Wind Speed 13 mph    
Max Gust Speed 20 mph    
Visibility 10 miles    
Events      
Averages and records for this station are not official NWS values.
T = Trace of Precipitation, MM = Missing Value Source: NWS Daily Summary

Daily Weather History Graph

Daily Weather History Graph

Search for Another Location

Airport or City:

Trip Planner

Search our weather history database for the weather conditions in past years. The results will help you decide how hot, cold, wet, or windy it might be!

Date:

Astronomy

Nov. 24, 2012 Rise Set
Actual Time 6:23 AM CST 4:43 PM CST
Civil Twilight 5:56 AM CST 5:09 PM CST
Nautical Twilight 5:27 AM CST 5:39 PM CST
Astronomical Twilight 4:57 AM CST 6:08 PM CST
Moon 2:18 PM CST (11/24) 2:50 AM CST (11/24)
Length of Visible Light 11h 12m
Length of Day
10h 19m
Waxing Gibbous, 87% of the Moon is Illuminated
Nov 24
Waxing Gibbous
Nov 28
Full
Dec 6
Last Quarter
Dec 13
New
Dec 19
First Quarter

Hourly Weather History & Observations

Time (CST) Temp. Windchill Dew Point Humidity Pressure Visibility Wind Dir Wind Speed Gust Speed Precip Events Conditions
12:56 AM 52.0 °F - 44.1 °F 74% 30.16 in 10.0 mi NNW 11.5 mph 19.6 mph N/A   Clear
2:56 AM 46.9 °F - 37.0 °F 68% 30.16 in 10.0 mi NNW 9.2 mph - N/A   Clear
3:56 AM 45.0 °F 40.1 °F 35.1 °F 68% 30.16 in 10.0 mi NNW 9.2 mph - N/A   Clear
4:56 AM 43.0 °F 38.2 °F 34.0 °F 71% 30.19 in 10.0 mi NW 8.1 mph - N/A   Clear
5:56 AM 41.0 °F 37.1 °F 34.0 °F 76% 30.20 in 10.0 mi NNW 5.8 mph - N/A   Clear
6:56 AM 41.0 °F 38.0 °F 33.1 °F 73% 30.22 in 10.0 mi NW 4.6 mph - N/A   Clear
7:56 AM 43.0 °F 39.5 °F 33.1 °F 68% 30.23 in 10.0 mi NNW 5.8 mph - N/A   Clear
8:56 AM 46.0 °F 41.0 °F 30.9 °F 56% 30.25 in 10.0 mi NW 10.4 mph - N/A   Clear
9:56 AM 48.9 °F - 28.0 °F 44% 30.25 in 10.0 mi NNW 12.7 mph - N/A   Clear
10:56 AM 51.1 °F - 27.0 °F 39% 30.22 in 10.0 mi NNW 9.2 mph - N/A   Clear
11:56 AM 54.0 °F - 24.1 °F 31% 30.18 in 10.0 mi NNE 11.5 mph - N/A   Clear
12:56 PM 55.9 °F - 23.0 °F 28% 30.16 in 10.0 mi NNW 11.5 mph - N/A   Clear
1:56 PM 55.9 °F - 21.9 °F 27% 30.15 in 10.0 mi NW 11.5 mph - N/A   Clear
2:56 PM 55.9 °F - 23.0 °F 28% 30.15 in 10.0 mi North 6.9 mph - N/A   Clear
3:56 PM 55.0 °F - 23.0 °F 29% 30.16 in 10.0 mi NW 5.8 mph - N/A   Clear
4:56 PM 51.1 °F - 24.1 °F 35% 30.17 in 10.0 mi NW 4.6 mph - N/A   Clear
5:56 PM 46.0 °F 44.8 °F 28.0 °F 50% 30.17 in 10.0 mi NNW 3.5 mph - N/A   Clear
6:56 PM 42.1 °F 40.2 °F 30.0 °F 62% 30.18 in 10.0 mi NNW 3.5 mph - N/A   Clear
7:56 PM 43.0 °F 41.3 °F 27.0 °F 53% 30.19 in 10.0 mi NNW 3.5 mph - N/A   Clear
8:56 PM 39.9 °F 35.8 °F 27.0 °F 60% 30.19 in 10.0 mi NW 5.8 mph - N/A   Clear
9:56 PM 37.0 °F - 28.9 °F 73% 30.19 in 10.0 mi Calm Calm - N/A   Clear
10:56 PM 33.1 °F - 28.0 °F 82% 30.18 in 10.0 mi Calm Calm - N/A   Clear
11:56 PM 32.0 °F - 28.0 °F 85% 30.17 in 10.0 mi Calm Calm - N/A   Clear